Location: Dziadowski
(50.3833°N, 20.0333°E)
Time: 08:43:19
(UTC+00:00)

CZ-4C R/B - Pass Details

Date: 18 January 2026
Orbit: 482 x 1496 km, 63.4° (Epoch: 15 February)

Event Time Altitude Azimuth Distance (km) Brightness Sun altitude
Exits shadow 04:15:24 19° 333° (NNW) 2,100 3.9 -21.1°
Maximum altitude 04:19:07 33° 24° (NNE) 1,701 3.9 -20.6°
Drops below altitude 10° 04:25:59 10° 86° (E) 3,231 6.4 -19.5°
Sets 04:29:28 0° 95° (E) 4,343 7.6 -18.9°
